Weather History for Wiscasset, ME

Change the Weather History Date:

Wednesday, February 13, 2013

  Actual Average Record
Temperature  
Mean Temperature 36 °F -  
Max Temperature 44 °F 31 °F 50 °F (1999)
Min Temperature 27 °F 11 °F -9 °F (2003)
Degree Days  
Heating Degree Days 30    
Moisture  
Dew Point 23 °F    
Average Humidity 63    
Maximum Humidity 85    
Minimum Humidity 37    
Precipitation  
Precipitation 0.00 in - - ()
Sea Level Pressure  
Sea Level Pressure 29.77 in    
Wind  
Wind Speed 2 mph (West)    
Max Wind Speed 7 mph    
Max Gust Speed -    
Visibility 10 miles    
Events      
Averages and records for this station are not official NWS values.
T = Trace of Precipitation, MM = Missing Value Source: NWS Daily Summary

Daily Weather History Graph

Daily Weather History Graph

Search for Another Location

Airport:

Trip Planner

Search our weather history database for the weather conditions in past years. The results will help you decide how hot, cold, wet, or windy it might be!

Date:

Astronomy

Feb. 13, 2013 Rise Set
Actual Time 6:40 AM EST 5:06 PM EST
Civil Twilight 6:10 AM EST 5:35 PM EST
Nautical Twilight 5:36 AM EST 6:09 PM EST
Astronomical Twilight 5:03 AM EST 6:43 PM EST
Moon 7:58 AM EST (2/13) 9:16 PM EST (2/13)
Length of Visible Light 11h 25m
Length of Day
10h 25m
Waxing Crescent, 13% of the Moon is Illuminated
Feb 13
Waxing Crescent
Feb 17
First Quarter
Feb 25
Full
Mar 4
Last Quarter
Mar 11
New

Hourly Weather History & Observations

Time (EST) Temp. Windchill Dew Point Humidity Pressure Visibility Wind Dir Wind Speed Gust Speed Precip Events Conditions
12:53 AM 32.0 °F - 26.1 °F 79% 29.75 in 10.0 mi Calm Calm - N/A   Mostly Cloudy
1:53 AM 27.0 °F - 23.0 °F 85% 29.76 in 10.0 mi Calm Calm - N/A   Clear
2:53 AM 32.0 °F - 24.1 °F 73% 29.76 in 10.0 mi Calm Calm - N/A   Mostly Cloudy
3:53 AM 33.1 °F 28.7 °F 23.0 °F 66% 29.76 in 10.0 mi Variable 4.6 mph - N/A   Overcast
4:53 AM 30.9 °F - 23.0 °F 72% 29.78 in 10.0 mi Calm Calm - N/A   Overcast
5:53 AM 30.0 °F - 23.0 °F 75% 29.78 in 10.0 mi Calm Calm - N/A   Overcast
6:53 AM 30.9 °F - 23.0 °F 72% 29.79 in 10.0 mi Calm Calm - N/A   Overcast
7:53 AM 30.9 °F 27.5 °F 23.0 °F 72% 29.81 in 10.0 mi SW 3.5 mph - N/A   Clear
8:53 AM 35.1 °F 31.0 °F 21.9 °F 59% 29.81 in 10.0 mi Variable 4.6 mph - N/A   Clear
9:53 AM 37.9 °F 33.5 °F 21.0 °F 51% 29.81 in 10.0 mi Variable 5.8 mph - N/A   Clear
10:53 AM 39.0 °F 35.7 °F 21.0 °F 49% 29.80 in 10.0 mi SW 4.6 mph - N/A   Clear
11:53 AM 41.0 °F 36.4 °F 21.0 °F 45% 29.77 in 10.0 mi West 6.9 mph - N/A   Partly Cloudy
12:53 PM 42.1 °F 38.4 °F 19.9 °F 41% 29.75 in 10.0 mi West 5.8 mph - N/A   Clear
1:53 PM 44.1 °F 40.1 °F 19.0 °F 37% 29.76 in 10.0 mi NW 6.9 mph - N/A   Mostly Cloudy
2:53 PM 42.1 °F 39.2 °F 19.0 °F 40% 29.75 in 10.0 mi WNW 4.6 mph - N/A   Scattered Clouds
3:53 PM 43.0 °F 41.3 °F 19.0 °F 38% 29.75 in 10.0 mi Variable 3.5 mph - N/A   Mostly Cloudy
4:53 PM 39.9 °F - 19.0 °F 43% 29.74 in 10.0 mi Calm Calm - N/A   Overcast
5:53 PM 35.1 °F - 25.0 °F 67% 29.76 in 10.0 mi Calm Calm - N/A   Overcast
6:53 PM 34.0 °F - 25.0 °F 70% 29.77 in 10.0 mi Calm Calm - N/A   Overcast
7:53 PM 32.0 °F - 26.1 °F 79% 29.77 in 10.0 mi Calm Calm - N/A   Overcast
8:53 PM 30.0 °F - 24.1 °F 79% 29.77 in 10.0 mi Calm Calm - N/A   Overcast
9:53 PM 30.0 °F - 25.0 °F 82% 29.77 in 10.0 mi Calm Calm - N/A   Overcast
10:53 PM 30.0 °F - 25.0 °F 82% 29.77 in 10.0 mi Calm Calm - N/A   Overcast
11:53 PM 33.1 °F - 21.0 °F 61% 29.75 in 10.0 mi Calm Calm - N/A   Overcast